Location: Bishop�s Knoyle
(51.0728°N, 2.1714°W)
Time: 23:02:52
(UTC+00:00)

OBJECT-B - Pass Details

Date: 18 September 2020
Orbit: 421 x 433 km, 97.0° (Epoch: 09 October)

Event Time Altitude Azimuth Distance (km) Brightness Sun altitude
Exits shadow 20:34:37 38° 231° (SW) 662 1.8 -21.6°
Maximum altitude 20:35:11 43° 261° (W) 611 1.8 -21.6°
Drops below altitude 10° 20:38:19 10° 335° (NNW) 1,524 4.4 -22.0°
Sets 20:40:24 0° 342° (NNW) 2,397 5.4 -22.3°
